Location: Marstown
(39.5056°N, 77.0820°W)
Time: 11:24:16
(UTC-05:00)

Tiangong 2 - Visible Passes

Search period start: 21 January 2018 00:00
Search period end: 31 January 2018 00:00
Orbit: 384 x 390 km, 42.8° (Epoch: 20 January)

Date Brightness Start Highest point End Pass type
(mag) Time Alt. Az. Time Alt. Az. Time Alt. Az.
21 Jan 2.0 05:29:09 47° ENE 05:29:09 47° ENE 05:31:33 10° ENE visible
22 Jan 1.5 06:05:34 34° WNW 06:06:31 47° N 06:09:38 10° ENE visible
23 Jan 3.5 05:09:37 21° ENE 05:09:37 21° ENE 05:10:53 10° ENE visible
23 Jan 1.7 06:41:53 11° WNW 06:44:47 45° N 06:47:53 10° E visible
24 Jan 1.7 05:45:54 43° N 05:45:57 43° N 05:49:02 10° ENE visible
25 Jan 4.4 04:49:52 12° ENE 04:49:52 12° ENE 04:50:13 10° ENE visible
25 Jan 1.5 06:22:08 19° WNW 06:24:11 54° N 06:27:20 10° E visible
26 Jan 2.4 05:26:07 37° NE 05:26:07 37° NE 05:28:27 10° E visible
27 Jan 1.1 06:02:21 35° WNW 06:03:32 76° NNE 06:06:43 10° ESE visible
28 Jan 3.4 05:06:21 24° E 05:06:21 24° E 05:07:51 10° E visible
28 Jan 1.9 06:38:37 11° W 06:41:29 40° SSW 06:44:30 10° SE visible
29 Jan 1.0 05:42:39 67° SW 05:42:46 69° SSW 05:45:56 10° ESE visible
30 Jan 4.4 04:46:43 13° ESE 04:46:43 13° ESE 04:47:11 10° ESE visible
30 Jan 2.7 06:19:00 16° WSW 06:20:34 22° SSW 06:23:08 10° SSE visible
